823  
ASUS43 KGLD 031059  
RWRGLD  
 
GOODLAND FORECAST AREA HOURLY WEATHER ROUNDUP  
NATIONAL WEATHER SERVICE GOODLAND KS  
500 AM MDT WED JUN 03 2020  
   
..OFFICIAL OBSERVATIONS
 
 
 
CITY SKY/WX TMP DP RH WIND PRES REMARKS
 
GOODLAND KS CLEAR 55 50 83 NW6 30.05F  
HILL CITY KS PTCLDY 66 59 78 NW7 29.98R  
IMPERIAL NEB CLEAR 58 55 90 SW8 30.05R  
MCCOOK NEB CLEAR 61 58 90 SW7 29.99S  
AKRON CO CLEAR 54 51 90 SW6 30.13R  
BURLINGTON CO CLEAR 55 52 89 W8 30.10R  
LIMON CO CLEAR 52 49 89 N3 30.18R  

 
   
..UNOFFICIAL OBSERVATIONS
 
 
 
CITY SKY/WX TMP DP RH WIND PRES REMARKS
 
COLBY KS CLEAR 55 52 88 NW8 30.04S  
SHARON SPRINGS N/A 56 48 74 W7 N/A  
YUMA CO FAIR 52 50 93 SW6 30.09F  

 
 
 
CLICK HERE TO GO TO PREVIOUS BULLETINS.

The Nexlab KS Page
The Nexlab CO Page
The Nexlab NE Page Main Text Page